Location: Krakow
(50.0830°N, 19.9170°E)
Time: 14:31:51
(UTC+01:00)

Vanguard 3 - All Passes

Search period start: 04 December 2023 00:00
Search period end: 14 December 2023 00:00
Orbit: 507 x 3241 km, 33.3° (Epoch: 04 December)

Date Brightness Start Highest point End Pass type
(mag) Time Alt. Az. Time Alt. Az. Time Alt. Az.
04 Dec - 01:00:09 10° SW 01:03:13 14° SSW 01:05:45 10° SSE night (unlit)
04 Dec - 19:22:53 10° SSE 19:24:08 10° SSE 19:25:20 10° SSE visible
04 Dec - 21:28:40 10° SSW 21:35:58 19° S 21:41:14 10° SE visible
04 Dec - 23:41:21 10° SW 23:47:01 19° S 23:51:07 10° SE night (unlit)
05 Dec - 20:11:14 10° SSW 20:18:50 17° SSE 20:24:35 10° SE visible
05 Dec - 22:22:44 10° SW 22:30:27 23° S 22:35:46 10° SE visible
06 Dec - 00:36:47 10° SW 00:41:02 16° SSW 00:44:19 10° SSE night (unlit)
06 Dec - 18:55:13 10° S 19:01:25 14° SSE 19:06:35 10° SE visible
06 Dec - 21:04:16 10° SW 21:13:30 23° S 21:19:52 10° ESE visible
06 Dec - 23:17:41 10° WSW 23:24:45 22° SSW 23:29:38 10° SE night (unlit)
07 Dec - 19:46:19 10° SSW 19:56:10 21° SSE 20:03:19 10° ESE visible
07 Dec - 21:58:41 10° SW 22:08:03 26° S 22:14:14 10° SE visible
08 Dec - 00:13:19 10° WSW 00:18:46 18° SSW 00:22:47 10° SSE night (unlit)
08 Dec - 18:29:33 10° S 18:38:33 17° SSE 18:45:42 10° ESE visible
08 Dec - 20:39:51 10° SW 20:50:54 27° S 20:58:18 10° ESE visible
08 Dec - 22:53:54 10° WSW 23:02:23 25° SSW 23:08:01 10° SE visible
09 Dec - 01:10:34 10° SW 01:12:26 11° SW 01:14:07 10° SSW night (unlit)
09 Dec - 17:15:38 10° SSE 17:20:48 12° SE 17:25:28 10° SE visible
09 Dec - 19:21:33 10° SSW 19:33:20 25° SSE 19:41:45 10° ESE visible
09 Dec - 21:34:34 10° SW 21:45:31 30° S 21:52:34 10° SE visible
09 Dec - 23:49:44 10° WSW 23:56:24 20° SSW 00:01:09 10° SSE night (unlit)
10 Dec - 18:04:20 10° SSW 18:15:31 21° SSE 18:24:15 10° ESE visible
10 Dec - 20:15:27 10° SW 20:28:09 31° S 20:36:34 10° ESE visible
10 Dec - 22:30:00 10° WSW 22:39:53 28° SSW 22:46:19 10° SE visible
11 Dec - 00:46:50 10° WSW 00:50:02 12° SW 00:52:44 10° SSW night (unlit)
11 Dec - 16:49:14 10° S 16:57:36 15° SE 17:04:54 10° ESE visible
11 Dec - 18:56:54 10° SSW 19:10:22 28° SSE 19:19:57 10° ESE visible
11 Dec - 21:10:24 10° WSW 21:22:49 33° S 21:30:47 10° SE visible
11 Dec - 23:26:00 10° WSW 23:33:55 22° SSW 23:39:24 10° SSE visible
12 Dec - 17:39:24 10° SSW 17:52:19 24° SSE 18:02:27 10° ESE visible
12 Dec - 19:51:03 10° SW 20:05:13 34° S 20:14:42 10° ESE visible
12 Dec - 22:05:59 10° WSW 22:17:16 30° SSW 22:24:30 10° SE visible
13 Dec - 00:23:08 10° WSW 00:27:32 14° SW 00:31:05 10° S night (unlit)
13 Dec - 16:23:45 10° S 16:34:15 18° SE 16:43:24 10° ESE visible
13 Dec - 18:32:21 10° SW 18:47:12 32° SSE 18:57:58 10° ESE visible
13 Dec - 20:46:10 10° WSW 20:59:58 36° S 21:08:53 10° SE visible
13 Dec - 23:02:09 10° WSW 23:11:18 24° SSW 23:17:33 10° SSE visible
